Location: Saint-Denis
(20.8800°S, 55.4481°E)
Time: 07:58:13
(UTC+04:00)

FENGYUN 1C DEB - Pass Details

Date: 02 March 2024
Orbit: 798 x 864 km, 98.6° (Epoch: 24 April)

Event Time Altitude Azimuth Distance (km) Brightness Sun altitude
Rises 19:48:10 0° 173° (S) 3,417 ? -15.5°
Reaches altitude 10° 19:50:35 10° 175° (S) 2,466 ? -16.0°
Maximum altitude 19:55:59 64° 256° (WSW) 915 ? -17.3°
Drops below altitude 10° 20:01:14 10° 336° (NNW) 2,398 ? -18.4°
Sets 20:03:33 0° 339° (NNW) 3,314 ? -19.0°
